Flag for Greece Weather past 2 weeks in Corfu, Greece

Now
50 °F

Thunderstorms. Passing clouds.


Feels Like: 50 °F
Forecast: 43 / 51 °F
Wind: No wind

Location: Kerkyra Airport

Current Time: Feb 2, 2015 at 1:46:40 AM

Latest Report: Feb 2, 2015 at 12:20 AM


Visibility: N/A

Pressure: 29.50 "Hg

Humidity: 94%

Dew point: 48 °F

Location of CorfuLocation

Historic Weather in Corfu — Graph

°F

Corfu temperature yesterday

Maximum temperature yesterday: 61 °F (at 12:20 AM)
Minimum temperature yesterday: 50 °F (at 11:50 PM)
Average temperature yesterday: 57 °F

Past Weeks' High & Low Weather Summary

 TemperatureHumidityPressure
High66 °F (Jan 22, 1:50 PM)100% (Jan 22, 1:50 AM)30.27 "Hg (Jan 22, 1:50 AM)
Low43 °F (Jan 26, 2:50 AM)52% (Jan 21, 8:50 AM)29.18 "Hg (Jan 31, 5:20 PM)
Average54 °F82%29.75 "Hg
* Reported Jan 18 12:20 AM — Feb 2 12:20 AM, Corfu, Weather by CustomWeather, © 2014

Note: Actual official high and low records may vary slightly from our data, if they occured in-between our weather recording intervals... More about our weather records

Advertising

Corfu weather history for previous 24 hours

 ConditionsComfort  
Time TempWeatherWind HumidityBarometerVisibility
12:20 AM
Feb 2
50 °FThunderstorms. Passing clouds.No wind94%29.50 "HgN/A
11:50 PM
Feb 1
50 °FThunderstorms. Passing clouds.No wind94%29.50 "HgN/A
11:20 PM54 °FThunderstorms. Passing clouds.No wind77%29.50 "Hg5 mi
10:50 PM54 °FThundershowers. Partly cloudy.No wind77%29.50 "HgN/A
10:20 PM54 °FPartly cloudy.2 mph77%29.47 "HgN/A
9:50 PM54 °FPartly cloudy.No wind77%29.47 "HgN/A
9:20 PM54 °FPartly cloudy.5 mph77%29.47 "HgN/A
8:50 PM54 °FPartly cloudy.3 mph77%29.47 "HgN/A
8:20 PM52 °FThunderstorms. Partly cloudy.5 mph77%29.47 "Hg4 mi
7:50 PM54 °FThunderstorms. Partly cloudy.6 mph82%29.45 "HgN/A
7:20 PM54 °FPartly cloudy.3 mph77%29.42 "HgN/A
6:50 PM54 °FPassing clouds.No wind77%29.42 "HgN/A
6:20 PM52 °FPassing clouds.3 mph77%29.42 "HgN/A
5:50 PM52 °FThundershowers. Broken clouds.12 mph82%29.42 "HgN/A
5:20 PM55 °FThunderstorms. Broken clouds.6 mph72%29.42 "Hg4 mi
4:50 PM57 °FBroken clouds.7 mph72%29.42 "HgN/A
4:20 PM59 °FPartly sunny.6 mph68%29.42 "HgN/A
3:50 PM59 °FBroken clouds.6 mph68%29.42 "HgN/A
3:20 PM59 °FBroken clouds.6 mph68%29.39 "HgN/A
2:50 PM59 °FBroken clouds.6 mph68%29.39 "HgN/A
2:20 PM59 °FBroken clouds.7 mph72%29.39 "HgN/A
1:50 PM59 °FBroken clouds.6 mph72%29.39 "HgN/A
1:20 PM61 °FScattered clouds.7 mph72%29.36 "HgN/A
12:50 PM61 °FScattered clouds.6 mph72%29.36 "HgN/A
12:20 PM61 °FScattered clouds.6 mph72%29.36 "HgN/A
11:50 AM61 °FScattered clouds.6 mph72%29.36 "HgN/A
11:20 AM61 °FScattered clouds.6 mph68%29.36 "HgN/A
10:50 AM59 °FScattered clouds.6 mph72%29.33 "HgN/A
2:50 AM59 °FLight rain. Partly cloudy.13 mph88%29.21 "Hg2 mi
2:20 AM59 °FLight rain. Partly cloudy.13 mph88%29.21 "Hg2 mi
1:50 AM59 °FLight rain. Partly cloudy.12 mph88%29.21 "Hg2 mi
1:20 AM61 °FLight rain. Partly cloudy.8 mph83%29.21 "Hg4 mi
Weather by CustomWeather, © 2014

See weather overviewHow to use our weather pages